Stations météo

Publicité
Cherbourg, France (7024): Température de l'air & dewpoint: 19.11.2020 23:00:00 - 25.11.2020 23:00:00 (CET)Cherbourg, France (7024): Température de l'air 5cm: 19.11.2020 23:00:00 - 25.11.2020 23:00:00 (CET)Cherbourg, France (7024): Température de l'air -20cm & Température de l'air -100cm: 19.11.2020 23:00:00 - 25.11.2020 23:00:00 (CET)Cherbourg, France (7024): Vitesse du vent & gusts: 19.11.2020 23:00:00 - 25.11.2020 23:00:00 (CET)Cherbourg, France (7024): Direction du vent: 19.11.2020 23:00:00 - 25.11.2020 23:00:00 (CET)Cherbourg, France (7024): reduced air pressure: 19.11.2020 23:00:00 - 25.11.2020 23:00:00 (CET)Cherbourg, France (7024): visibility: 19.11.2020 23:00:00 - 25.11.2020 23:00:00 (CET)Cherbourg, France (7024): Ensoleillement: 19.11.2020 23:00:00 - 25.11.2020 23:00:00 (CET)Cherbourg, France (7024): Quantités de précipitations: 19.11.2020 23:00:00 - 25.11.2020 23:00:00 (CET)
Date & Time tt [°C] td [°C] tt 5cm [°C] tt -20cm [°C] tt -100cm [°C] ff [km/h] ff [knt] fx [km/h] fx [knt] dd ppp [hPa] vv [km] sd [min] rr [mm]
25.11.2020 23:00:00 - - - - - - - - - - - - - -
25.11.2020 22:00:00 9,7 9,4 9,7 10,8 11,9 15 8 24 13 NNE 1017,7 2,5 0 0,4
25.11.2020 21:00:00 10,6 10,3 10,3 10,7 11,9 10 5 17 9 N 1017,1 1,7 0 0,2
25.11.2020 20:00:00 10,4 9,9 10,3 10,7 11,9 7 4 13 7 N 1016,6 4,3 0 0,4
25.11.2020 19:00:00 10,8 10,3 10,6 10,7 11,9 6 3 14 8 NW 1016,0 2,8 0 0,0
25.11.2020 18:00:00 10,9 10,3 10,7 10,6 11,9 8 4 19 10 WSW 1015,1 3,0 0 0,0
25.11.2020 17:00:00 11,2 10,3 10,9 10,6 11,9 11 6 21 12 SSW 1014,4 7 0 0,0
25.11.2020 16:00:00 11,4 10,5 11,4 10,6 11,9 14 8 33 18 SSW 1013,8 9 12 0,2
25.11.2020 15:00:00 11,7 10,4 11,5 10,5 11,9 20 11 32 18 S 1013,3 8 0 0,0
25.11.2020 14:00:00 11,9 10,6 11,1 10,5 11,9 22 12 35 19 S 1013,1 12 15 0,0
25.11.2020 13:00:00 11,3 10,4 11,0 10,5 11,9 22 12 38 20 S 1013,1 8 0 0,2
25.11.2020 12:00:00 11,6 10,5 11,7 10,4 11,9 21 12 37 20 S 1012,9 13 0 0,0
25.11.2020 11:00:00 11,2 10,4 10,8 10,4 11,9 25 14 41 22 S 1012,6 9 0 0,0
25.11.2020 10:00:00 10,8 10,3 10,1 10,4 11,9 23 12 37 20 S 1012,3 6 0 0,0
25.11.2020 09:00:00 10,3 9,8 9,0 10,5 12,0 26 14 40 21 S 1011,9 5 0 0,0
25.11.2020 08:00:00 9,3 8,8 8,7 10,5 11,9 27 15 41 22 S 1011,2 6 0 0,0
25.11.2020 07:00:00 8,8 8,2 8,0 10,5 12,0 22 12 35 19 S 1010,9 7 0 0,0
25.11.2020 06:00:00 8,4 7,6 8,0 10,5 12,0 25 13 40 22 S 1011,0 8 0 0,0
25.11.2020 05:00:00 8,3 7,7 6,7 10,5 12,0 23 13 37 20 S 1010,8 8 0 0,0
25.11.2020 04:00:00 7,2 6,6 6,4 10,5 11,9 21 11 32 17 S 1010,8 6 0 0,0
25.11.2020 03:00:00 7,0 6,3 6,5 10,6 12,0 20 11 36 19 S 1011,1 7 0 0,0
25.11.2020 02:00:00 7,5 6,6 6,5 10,6 12,0 23 13 38 20 S 1011,2 10 0 0,0
25.11.2020 01:00:00 7,1 5,9 6,2 10,6 12,0 20 11 32 17 S 1011,6 14 0 0,0
25.11.2020 00:00:00 7,0 5,3 6,2 10,6 12,0 18 10 28 15 S 1012,1 19 0 0,0
24.11.2020 23:00:00 7,2 5,3 6,4 10,7 12,0 20 11 30 16 S 1012,5 22 0 0,0
24.11.2020 22:00:00 7,3 5,4 6,6 10,7 12,0 17 9 26 14 S 1012,9 24 0 0,0
24.11.2020 21:00:00 7,5 5,1 6,1 10,7 12,0 16 9 25 13 S 1013,3 31 0 0,0
24.11.2020 20:00:00 7,4 4,4 6,3 10,7 12,0 14 7 20 11 S 1013,7 41 0 0,0
24.11.2020 19:00:00 7,8 3,8 6,6 10,7 12,0 11 6 27 15 SSE 1014,0 47 0 0,0
24.11.2020 18:00:00 9,0 3,8 8,1 10,7 12,0 18 10 27 14 S 1014,0 60 0 0,0
24.11.2020 17:00:00 9,5 3,9 8,5 10,7 12,0 14 8 27 15 S 1014,2 57 31 0,0
24.11.2020 16:00:00 11,5 3,8 13,1 10,7 12,0 19 10 32 18 S 1014,7 45 60 0,0
24.11.2020 15:00:00 10,9 6,2 11,7 10,7 12,0 18 10 35 19 S 1015,6 39 51 0,0
24.11.2020 14:00:00 11,2 5,1 11,6 10,7 12,0 21 11 35 19 S 1016,4 39 52 0,0
24.11.2020 13:00:00 10,6 6,5 9,5 10,7 12,0 25 13 37 20 S 1017,3 20 39 0,0
24.11.2020 12:00:00 8,5 6,8 9,0 10,8 12,0 26 14 36 20 S 1018,7 35 15 0,0
24.11.2020 11:00:00 7,9 6,5 6,1 10,8 12,0 19 11 29 16 S 1019,5 19 44 0,0
24.11.2020 10:00:00 5,9 5,3 4,5 10,8 12,0 14 7 24 13 SSE 1020,5 13 0 0,0
24.11.2020 09:00:00 5,3 4,9 3,8 10,9 12,0 15 8 21 11 SSE 1020,6 11 0 0,0
24.11.2020 08:00:00 5,6 4,9 4,7 10,9 12,0 16 9 29 15 SSE 1021,0 13 0 0,0
24.11.2020 07:00:00 6,1 5,2 5,1 10,9 12,0 19 10 29 16 S 1021,3 18 0 0,0
24.11.2020 06:00:00 6,7 5,6 5,3 11,0 12,0 17 9 26 14 S 1021,9 31 0 0,0
24.11.2020 05:00:00 7,4 6,0 6,0 11,0 12,0 14 8 24 13 S 1022,5 36 0 0,0
24.11.2020 04:00:00 8,2 7,1 7,1 11,0 12,0 13 7 24 13 S 1023,3 29 0 0,0
24.11.2020 03:00:00 8,4 7,6 7,5 11,0 12,0 13 7 19 10 S 1023,9 19 0 0,0
24.11.2020 02:00:00 8,0 7,4 6,2 11,1 12,0 12 7 23 13 S 1024,8 29 0 0,0
24.11.2020 01:00:00 8,0 7,6 6,9 11,1 12,0 15 8 25 14 S 1025,4 33 0 0,0
24.11.2020 00:00:00 8,3 8,0 7,2 11,1 12,0 13 7 24 13 S 1025,9 16 0 0,0
23.11.2020 23:00:00 8,7 8,6 7,8 11,1 12,0 16 9 26 14 SSW 1026,3 17 0 0,0
23.11.2020 22:00:00 9,0 8,9 7,8 11,1 12,0 14 8 21 11 S 1026,7 2,9 0 0,0
23.11.2020 21:00:00 8,8 8,7 5,9 11,2 12,0 10 5 13 7 S 1026,9 1,4 0 0,0
23.11.2020 20:00:00 8,2 7,9 6,8 11,2 12,0 10 5 14 8 S 1027,1 1,0 0 0,0
23.11.2020 19:00:00 8,9 8,6 5,7 11,2 12,0 7 4 10 6 S 1027,4 2,8 0 0,0
23.11.2020 18:00:00 8,4 8,0 7,0 11,2 12,0 9 5 16 8 S 1027,6 4,5 0 0,0
23.11.2020 17:00:00 9,2 8,3 8,2 11,2 12,0 10 5 21 11 S 1027,6 29 11 0,0
23.11.2020 16:00:00 10,7 9,0 10,7 11,1 12,0 8 5 37 20 SSW 1027,5 16 8 0,0
23.11.2020 15:00:00 11,2 9,1 11,8 11,1 12,0 14 8 23 12 S 1027,8 60 18 0,0
23.11.2020 14:00:00 11,3 9,4 12,3 11,1 12,0 16 8 21 11 S 1028,1 56 6 0,0
23.11.2020 13:00:00 11,0 9,6 11,9 11,1 12,0 11 6 18 10 S 1028,7 50 4 0,0
23.11.2020 12:00:00 10,6 9,4 12,0 11,1 12,0 13 7 18 10 S 1029,2 60 20 0,0
23.11.2020 11:00:00 10,8 9,2 12,2 11,1 12,0 9 5 11 6 SSE 1029,2 30 60 0,0
23.11.2020 10:00:00 9,5 8,7 8,7 11,1 12,0 6 3 10 5 ESE 1029,0 29 38 0,0
23.11.2020 09:00:00 8,8 8,7 6,9 11,1 12,0 5 3 8 5 SE 1028,8 19 3 0,0
23.11.2020 08:00:00 8,4 8,3 7,4 11,1 12,0 3 1 10 5 ENE 1028,7 37 0 0,0
23.11.2020 07:00:00 8,7 8,6 8,5 11,1 12,0 7 4 16 9 NE 1028,5 7 0 0,0
23.11.2020 06:00:00 8,7 8,6 8,7 11,1 12,0 13 7 21 11 NNE 1028,3 6 0 0,8
23.11.2020 05:00:00 9,0 8,9 9,0 11,1 12,0 16 9 26 14 NNE 1028,2 2,5 0 0,6
23.11.2020 04:00:00 9,2 9,1 9,3 11,1 12,0 9 5 24 13 NE 1028,0 0,9 0 0,6
23.11.2020 03:00:00 9,5 9,4 9,4 11,1 12,0 15 8 25 14 NE 1028,1 2,7 0 0,8
23.11.2020 02:00:00 9,9 9,6 9,8 11,1 12,0 12 7 25 13 NE 1027,9 0,4 0 0,8
23.11.2020 01:00:00 10,9 10,6 10,0 11,1 12,0 14 7 21 12 WSW 1027,8 2,4 0 0,8
23.11.2020 00:00:00 10,4 10,1 9,7 11,1 12,0 9 5 16 9 SW 1027,8 8 0 0,2
22.11.2020 23:00:00 10,7 10,4 10,2 11,1 12,0 10 5 19 10 WSW 1028,0 3,6 0 0,0
22.11.2020 22:00:00 10,7 10,4 10,0 11,1 12,0 11 6 22 12 WSW 1028,0 10 0 1,0
22.11.2020 21:00:00 10,6 10,3 10,3 11,1 12,0 12 7 19 10 WSW 1028,1 4,9 0 0,0
22.11.2020 20:00:00 10,6 10,3 10,3 11,1 12,0 13 7 21 11 W 1028,0 6 0 0,2
22.11.2020 19:00:00 10,6 10,3 10,4 11,1 12,0 11 6 23 13 W 1027,8 3,5 0 0,6
22.11.2020 18:00:00 10,8 10,5 10,6 11,0 12,0 14 8 19 11 W 1027,5 2,0 0 0,4
22.11.2020 17:00:00 11,0 10,7 10,9 11,0 12,0 13 7 19 11 WSW 1027,4 12 0 0,2
22.11.2020 16:00:00 10,6 10,3 10,2 11,0 12,0 7 4 18 10 SSW 1027,4 1,8 0 2,2
22.11.2020 15:00:00 10,6 10,3 10,2 11,0 12,0 10 6 15 8 S 1027,6 3,7 0 0,4
22.11.2020 14:00:00 10,1 9,6 10,1 11,0 12,0 12 6 18 10 SSW 1028,0 2,1 0 0,4
22.11.2020 13:00:00 11,5 10,9 11,7 11,0 12,0 13 7 18 10 WSW 1028,0 31 0 0,0
22.11.2020 12:00:00 11,2 10,7 11,2 10,9 12,0 11 6 22 12 W 1028,6 20 0 0,0
22.11.2020 11:00:00 11,0 10,5 10,8 10,9 12,0 13 7 21 11 WSW 1028,5 4,2 0 0,2
22.11.2020 10:00:00 10,9 10,4 10,4 10,9 12,0 16 8 22 12 SW 1028,3 9 0 0,0
22.11.2020 09:00:00 10,6 10,1 10,2 10,9 12,0 13 7 21 11 SW 1028,2 30 0 0,0
22.11.2020 08:00:00 10,5 10,0 10,1 10,9 12,0 14 8 20 11 SW 1028,1 4,1 0 0,0
22.11.2020 07:00:00 10,4 9,9 10,0 10,9 12,1 12 7 20 11 SW 1028,0 13 0 0,2
22.11.2020 06:00:00 10,3 9,8 10,0 10,9 12,1 15 8 26 14 W 1028,0 7 0 0,2
22.11.2020 05:00:00 10,4 9,6 10,0 10,9 12,1 16 9 26 14 WSW 1027,9 4,1 0 0,0
22.11.2020 04:00:00 10,6 9,5 9,9 10,9 12,0 16 9 29 15 WSW 1028,0 38 0 0,0
22.11.2020 03:00:00 10,3 9,7 9,9 10,9 12,1 16 9 23 13 SW 1028,1 7 0 0,0
22.11.2020 02:00:00 10,3 9,7 10,0 10,9 12,1 15 8 24 13 WSW 1028,2 7 0 0,2
22.11.2020 01:00:00 10,5 9,4 9,9 10,9 12,1 17 9 24 13 SW 1028,3 7 0 0,0
22.11.2020 00:00:00 10,4 9,3 9,6 10,9 12,1 18 10 27 14 WSW 1028,5 10 0 0,0
21.11.2020 23:00:00 10,1 9,2 9,5 10,9 12,1 16 8 23 12 SW 1029,0 36 0 0,0
21.11.2020 22:00:00 10,1 9,5 9,5 10,9 12,1 18 10 27 14 SW 1029,1 12 0 0,0
21.11.2020 21:00:00 9,9 9,1 9,5 10,9 12,1 15 8 26 14 SW 1029,4 6 0 0,0
21.11.2020 20:00:00 10,0 8,6 9,3 10,9 12,1 19 10 29 16 SSW 1029,4 34 0 0,0
21.11.2020 19:00:00 10,4 8,7 10,0 10,8 12,1 19 10 31 17 SSW 1029,6 18 0 0,0
21.11.2020 18:00:00 10,4 8,5 10,0 10,8 12,1 21 11 33 18 SW 1029,5 20 0 0,0
21.11.2020 17:00:00 10,4 8,7 10,0 10,8 12,1 19 11 32 18 SW 1029,4 15 0 0,0
21.11.2020 16:00:00 11,3 8,5 11,4 10,8 12,1 22 12 42 23 WSW 1029,4 55 13 0,0
21.11.2020 15:00:00 11,2 8,8 11,1 10,8 12,1 18 10 38 20 WSW 1029,7 54 0 0,0
21.11.2020 14:00:00 11,3 8,5 11,5 10,8 12,1 23 12 40 22 WSW 1030,1 57 0 0,0
21.11.2020 13:00:00 11,4 9,0 11,6 10,7 12,1 26 14 40 22 WSW 1030,5 43 1 0,0
21.11.2020 12:00:00 11,1 8,8 11,2 10,7 12,1 23 12 35 19 WSW 1030,8 54 0 0,0
21.11.2020 11:00:00 10,7 8,6 9,8 10,7 12,1 21 11 33 18 SW 1031,1 54 0 0,0
21.11.2020 10:00:00 10,0 8,6 9,5 10,7 12,2 19 11 32 18 SW 1031,1 17 0 0,0
21.11.2020 09:00:00 10,0 8,1 9,6 10,7 12,2 22 12 38 21 SW 1031,3 56 0 0,0
21.11.2020 08:00:00 10,1 8,2 9,5 10,7 12,2 21 12 35 19 SW 1031,2 59 0 0,0
21.11.2020 07:00:00 9,9 8,0 9,1 10,7 12,2 21 11 36 19 SW 1031,3 59 0 0,0
21.11.2020 06:00:00 9,8 8,2 9,0 10,7 12,2 20 11 33 18 SW 1031,3 60 0 0,0
21.11.2020 05:00:00 9,6 8,4 8,4 10,7 12,2 18 10 30 16 SSW 1031,1 56 0 0,0
21.11.2020 04:00:00 9,1 8,0 8,0 10,7 12,2 15 8 24 13 SSW 1031,7 50 0 0,0
21.11.2020 03:00:00 9,5 8,3 8,7 10,7 12,2 17 9 27 15 SW 1032,0 48 0 0,0
21.11.2020 02:00:00 9,6 8,8 9,1 10,7 12,2 15 8 22 12 SW 1032,3 44 0 0,0
21.11.2020 01:00:00 9,8 9,3 9,0 10,7 12,2 14 8 29 16 SW 1032,4 20 0 0,2
21.11.2020 00:00:00 9,4 8,9 9,1 10,7 12,2 22 12 33 18 WSW 1033,1 18 0 0,0
20.11.2020 23:00:00 9,6 9,3 8,8 10,7 12,2 18 10 35 19 SW 1033,2 3,2 0 0,0
20.11.2020 22:00:00 9,2 8,9 8,7 10,7 12,2 23 12 36 19 SW 1033,4 4,5 0 0,2
20.11.2020 21:00:00 8,8 8,5 8,7 10,7 12,2 20 11 31 17 SSW 1033,8 3,2 0 0,2
20.11.2020 20:00:00 9,0 8,7 8,8 10,7 12,2 16 9 27 14 SW 1034,3 3,5 0 0,2
20.11.2020 19:00:00 9,1 8,6 8,7 10,7 12,2 16 9 24 13 SSW 1034,2 7 0 0,0
20.11.2020 18:00:00 8,9 8,4 8,6 10,6 12,2 14 7 22 12 SW 1034,1 33 0 0,0
20.11.2020 17:00:00 8,9 8,6 8,7 10,6 12,2 11 6 17 9 SSW 1034,2 14 0 0,0
20.11.2020 16:00:00 8,5 8,2 8,1 10,6 12,2 12 6 21 12 SSW 1034,5 4,7 0 0,0
20.11.2020 15:00:00 7,9 7,3 7,8 10,6 12,2 16 9 22 12 S 1034,9 11 0 0,2
20.11.2020 14:00:00 8,2 6,8 8,0 10,6 12,2 15 8 23 12 S 1035,5 26 0 0,0
20.11.2020 13:00:00 7,7 6,0 7,1 10,6 12,2 14 8 21 12 S 1036,1 20 0 0,0
20.11.2020 12:00:00 7,0 5,0 6,8 10,6 12,2 13 7 18 10 S 1036,7 20 0 0,4
20.11.2020 11:00:00 7,8 4,4 8,4 10,7 12,2 10 6 15 8 S 1036,5 48 0 0,0
20.11.2020 10:00:00 7,5 4,4 5,6 10,7 12,3 7 4 11 6 SSW 1036,7 56 13 0,0
20.11.2020 09:00:00 5,9 3,1 3,5 10,8 12,3 9 5 14 7 SW 1036,7 46 6 0,0
20.11.2020 08:00:00 5,5 2,1 3,6 10,8 12,2 9 5 16 9 WSW 1036,6 60 0 0,0
20.11.2020 07:00:00 6,5 2,8 4,5 10,8 12,3 13 7 18 10 WSW 1036,2 60 0 0,0
20.11.2020 06:00:00 6,2 2,3 4,9 10,8 12,3 9 5 16 9 WSW 1036,3 60 0 0,0
20.11.2020 05:00:00 8,5 3,1 6,8 10,8 12,2 10 5 18 10 WNW 1036,4 60 0 0,0
20.11.2020 04:00:00 8,2 3,0 6,7 10,9 12,3 6 3 20 11 NW 1036,8 60 0 0,0
20.11.2020 03:00:00 8,3 2,7 6,0 10,9 12,3 10 5 19 11 NW 1037,0 60 0 0,0
20.11.2020 02:00:00 8,2 2,4 5,9 10,9 12,3 9 5 23 12 NW 1037,2 60 0 0,0
20.11.2020 01:00:00 8,8 2,8 6,7 10,9 12,3 11 6 25 13 NW 1037,2 60 0 0,0
20.11.2020 00:00:00 8,8 2,8 7,2 11,0 12,3 11 6 29 16 NW 1037,5 60 0 0,0
19.11.2020 23:00:00 8,5 3,7 6,9 11,0 12,3 10 5 23 12 NNW 1037,0 60 0 0,0

tt = Température de l'air
td = dewpoint
tt 5cm = Température de l'air 5cm
tt -20cm = Température de l'air -20cm
tt -100cm = Température de l'air -100cm
ff = Vitesse du vent
fx = gusts
dd = Direction du vent
ppp = reduced air pressure
vv = visibility
sd = Ensoleillement
rr = Quantités de précipitations

stations d'obs. à proximité